This is the latest recevied weather packets stored in our database for station/object DC9VQ-13. If no packets are shown the sender has not sent any weather packets the latest 10 day(s).
| Time | Temp. | Humidity | Pressure | Rain* | Wind** | Luminosity | Snow |
|---|---|---|---|---|---|---|---|
| 1777455916 | 15.56° C | 38% | 1024.5 hPa | 0 mm | - | - | - |
| 1777455311 | 15° C | 38% | 1024.4 hPa | 0 mm | - | - | - |
| 1777454709 | 14.44° C | 40% | 1024.4 hPa | 0 mm | - | - | - |
| 1777454107 | 13.89° C | 40% | 1024.5 hPa | 0 mm | - | - | - |
| 1777453505 | 13.33° C | 45% | 1024.6 hPa | 0 mm | - | - | - |
| 1777452904 | 12.78° C | 46% | 1024.6 hPa | 0 mm | - | - | - |
| 1777452000 | 12.78° C | 47% | 1024.6 hPa | 0 mm | - | - | - |
| 1777451398 | 12.22° C | 48% | 1024.6 hPa | 0 mm | - | - | - |
| 1777450797 | 11.67° C | 48% | 1024.8 hPa | 0 mm | - | - | - |
| 1777450194 | 11.11° C | 49% | 1024.6 hPa | 0 mm | - | - | - |
| 1777449592 | 11.11° C | 49% | 1024.6 hPa | 0 mm | - | - | - |
| 1777448990 | 10.56° C | 49% | 1024.6 hPa | 0 mm | - | - | - |
| 1777448388 | 10° C | 51% | 1024.5 hPa | 0 mm | - | - | - |
| 1777447786 | 10° C | 51% | 1024.4 hPa | 0 mm | - | - | - |
| 1777447184 | 9.44° C | 52% | 1024.4 hPa | 0 mm | - | - | - |
| 1777446582 | 8.89° C | 53% | 1024.4 hPa | 0 mm | - | - | - |
| 1777445980 | 8.89° C | 54% | 1024.3 hPa | 0 mm | - | - | - |
| 1777445378 | 8.33° C | 55% | 1024.2 hPa | 0 mm | - | - | - |
| 1777444776 | 8.33° C | 56% | 1024.2 hPa | 0 mm | - | - | - |
| 1777444174 | 7.78° C | 57% | 1024.1 hPa | 0 mm | - | - | - |
| 1777443572 | 7.22° C | 57% | 1024 hPa | 0 mm | - | - | - |
| 1777442970 | 7.22° C | 58% | 1024 hPa | 0 mm | - | - | - |
| 1777442367 | 6.67° C | 58% | 1023.9 hPa | 0 mm | - | - | - |
| 1777441765 | 6.67° C | 58% | 1023.9 hPa | 0 mm | - | - | - |
| 1777441163 | 6.67° C | 58% | 1023.8 hPa | 0 mm | - | - | - |
* Rain latest hour (hover to see other rain measurements)
** Current wind speed in m/s (hover to see current wind gust speed)